FW8825 Weather Reports


time (UTC)temp
C
wind
direction
speed
KPH
gust
KPH
rain 1hr
cm
rain 24hr
cm
rain mn
cm
humidity
%
barometer
mb
20260508060005 8 107 3.2 9.7 0.00 0.00 0.00 87 1017.4
20260508055505 8 102 3.2 9.7 0.00 0.00 0.00 87 1017.4
20260508055005 8 107 1.6 11.3 0.00 0.00 0.00 87 1017.4
20260508054505 8 127 3.2 11.3 0.00 0.00 0.00 88 1017.4
20260508054005 8 159 3.2 8.0 0.00 0.00 0.00 88 1017.4
20260508053505 8 157 1.6 8.0 0.00 0.00 0.00 88 1017.4
20260508053005 8 143 1.6 8.0 0.00 0.00 0.00 88 1017.4
20260508052504 8 124 1.6 6.4 0.00 0.00 0.00 88 1017.3
20260508052005 8 115 1.6 4.8 0.00 0.00 0.00 88 1017.2
20260508051505 8 116 1.6 6.4 0.00 0.00 0.00 88 1017.1
20260508051005 8 116 0.0 6.4 0.00 0.00 0.00 88 1017.2
20260508050505 8 119 1.6 3.2 0.00 0.00 0.00 88 1017.2
20260508045505 8 122 1.6 4.8 0.00 0.00 0.00 88 1017.2
20260508044505 8 115 1.6 4.8 0.00 0.00 0.00 88 1017.1
20260508043505 8 114 1.6 4.8 0.00 0.00 0.00 87 1017.0
20260508043004 8 117 1.6 4.8 0.00 0.00 0.00 87 1017.0
20260508042004 8 151 0.0 3.2 0.00 0.00 0.00 87 1017.0
20260508041505 8 158 1.6 3.2 0.00 0.00 0.00 87 1016.9
20260508041005 8 159 1.6 6.4 0.00 0.00 0.00 87 1017.1
20260508040505 8 159 1.6 6.4 0.00 0.00 0.00 86 1016.8
20260508040005 8 159 1.6 6.4 0.00 0.00 0.00 86 1017.0
20260508035504 8 159 1.6 3.2 0.00 0.00 0.00 86 1017.0
20260508035005 8 159 1.6 6.4 0.00 0.00 0.00 86 1017.0
20260508034505 8 159 1.6 6.4 0.00 0.00 0.00 86 1016.9
20260508033505 8 159 1.6 6.4 0.00 0.00 0.00 86 1017.0
20260508032504 8 154 1.6 6.4 0.00 0.00 0.00 86 1017.1
20260508032004 8 150 1.6 6.4 0.00 0.00 0.00 86 1017.1
20260508031504 8 150 1.6 4.8 0.00 0.00 0.00 86 1017.1
20260508031005 8 146 1.6 6.4 0.00 0.00 0.00 86 1017.1
20260508030505 8 146 1.6 6.4 0.00 0.00 0.00 85 1017.1
20260508030005 8 150 1.6 4.8 0.00 0.00 0.00 85 1017.1
20260508025505 8 153 1.6 6.4 0.00 0.00 0.00 85 1017.1
20260508025005 8 153 3.2 6.4 0.00 0.00 0.00 85 1017.2
20260508024504 8 151 3.2 6.4 0.00 0.00 0.00 85 1017.0
20260508024005 8 147 1.6 4.8 0.00 0.00 0.00 85 1017.2
20260508023505 8 143 1.6 4.8 0.00 0.00 0.00 85 1017.2
20260508023005 8 139 1.6 3.2 0.00 0.00 0.00 85 1017.1
20260508022505 8 139 1.6 4.8 0.00 0.00 0.00 85 1017.0
20260508022005 8 139 1.6 4.8 0.00 0.00 0.00 85 1017.2
20260508021504 8 139 1.6 4.8 0.00 0.00 0.00 84 1017.2
20260508021004 8 139 1.6 4.8 0.00 0.00 0.00 84 1017.1
20260508020005 8 139 1.6 4.8 0.00 0.00 0.00 84 1017.1
20260508015005 8 139 0.0 3.2 0.00 0.00 0.00 84 1017.0
20260508014004 8 139 1.6 3.2 0.00 0.00 0.00 84 1017.0
20260508013506 8 139 1.6 3.2 0.00 0.00 0.00 83 1017.0
20260508013005 8 139 1.6 3.2 0.00 0.00 0.00 83 1016.9
20260508012504 8 139 1.6 4.8 0.00 0.00 0.00 83 1017.0
20260508012004 8 139 1.6 4.8 0.00 0.00 0.00 83 1017.0
20260508011504 8 139 1.6 4.8 0.00 0.00 0.00 83 1016.9
20260508011005 8 139 1.6 4.8 0.00 0.00 0.00 83 1016.8
20260508010504 8 139 1.6 4.8 0.00 0.00 0.00 83 1016.8
20260508010004 8 139 0.0 3.2 0.00 0.00 0.00 82 1016.8
20260508005504 9 140 0.0 3.2 0.00 0.00 0.00 82 1016.9
20260508005005 9 139 0.0 3.2 0.00 0.00 0.00 82 1016.8
20260508004504 9 0 0.0 0.0 0.00 0.00 0.00 82 1017.0
20260508004004 9 0 0.0 0.0 0.00 0.00 0.00 82 1017.0
20260508003505 9 139 0.0 4.8 0.00 0.00 0.00 82 1017.1
20260508003005 9 139 0.0 4.8 0.00 0.00 0.00 81 1017.1
20260508002504 9 140 0.0 3.2 0.00 0.00 0.00 81 1017.0
20260508002004 9 140 0.0 3.2 0.00 0.00 0.00 81 1017.1
20260508001504 9 140 0.0 3.2 0.00 0.00 0.00 81 1017.0
20260508000505 9 138 1.6 6.4 0.00 0.00 0.00 81 1017.1
20260508000005 9 130 1.6 6.4 0.00 0.00 0.00 81 1017.1
20260507235504 9 120 1.6 6.4 0.00 0.00 0.00 80 1017.2
20260507235004 9 126 1.6 6.4 0.00 0.00 0.00 80 1017.1
20260507234504 9 142 1.6 6.4 0.00 0.00 0.00 80 1017.3
20260507232507 9 151 1.6 8.0 0.00 0.00 0.00 79 1017.3
20260507232008 9 151 3.2 8.0 0.00 0.00 0.00 79 1017.3
20260507231507 9 149 3.2 8.0 0.00 0.00 0.00 79 1017.3
20260507231007 9 147 3.2 9.7 0.00 0.00 0.00 79 1017.2
20260507230508 9 147 3.2 9.7 0.00 0.00 0.00 78 1017.1
20260507225507 10 140 3.2 9.7 0.00 0.00 0.00 78 1017.3
20260507225007 10 138 4.8 12.9 0.00 0.00 0.00 78 1017.4
20260507224507 10 129 3.2 12.9 0.00 0.00 0.00 77 1017.4
20260507224007 10 119 1.6 11.3 0.00 0.00 0.00 77 1017.4
20260507223507 10 116 3.2 6.4 0.00 0.00 0.00 77 1017.4
20260507223008 10 130 3.2 8.0 0.00 0.00 0.00 77 1017.4
20260507222507 10 134 3.2 9.7 0.00 0.00 0.00 77 1017.4
20260507222007 10 128 3.2 11.3 0.00 0.00 0.00 77 1017.3
20260507221507 10 124 3.2 11.3 0.00 0.00 0.00 76 1017.4
20260507221007 10 121 3.2 12.9 0.00 0.00 0.00 77 1017.3
20260507220507 10 122 3.2 12.9 0.00 0.00 0.00 76 1017.3
20260507220007 10 114 3.2 9.7 0.00 0.00 0.00 76 1017.3
20260507215508 10 118 3.2 9.7 0.00 0.00 0.00 76 1017.3
20260507215007 10 131 3.2 14.5 0.00 0.00 0.00 76 1017.3
20260507214007 10 141 3.2 12.9 0.00 0.00 0.00 76 1017.3
20260507213507 10 142 3.2 12.9 0.00 0.00 0.00 75 1017.2
20260507213007 10 138 3.2 12.9 0.00 0.00 0.00 75 1017.3
20260507212507 10 124 3.2 8.0 0.00 0.00 0.00 75 1017.4
20260507212008 10 125 3.2 11.3 0.00 0.00 0.00 75 1017.2
20260507211507 10 128 3.2 12.9 0.00 0.00 0.00 75 1017.2
20260507211007 10 126 3.2 12.9 0.00 0.00 0.00 75 1017.0
20260507210507 11 130 3.2 11.3 0.00 0.00 0.00 74 1017.1
20260507210007 11 136 3.2 11.3 0.00 0.00 0.00 74 1017.1
20260507205507 11 140 3.2 11.3 0.00 0.00 0.00 74 1017.1
20260507205007 11 136 4.8 11.3 0.00 0.00 0.00 74 1017.0
20260507204507 11 135 4.8 11.3 0.00 0.00 0.00 73 1017.0
20260507204007 11 133 4.8 11.3 0.00 0.00 0.00 73 1016.9
20260507203507 11 126 3.2 16.1 0.00 0.00 0.00 73 1016.8
20260507203007 11 131 3.2 16.1 0.00 0.00 0.00 73 1016.6
20260507202507 11 133 3.2 12.9 0.00 0.00 0.00 72 1016.8
20260507202007 11 123 4.8 14.5 0.00 0.00 0.00 72 1016.7
20260507201507 11 126 4.8 14.5 0.00 0.00 0.00 71 1016.6
20260507201007 11 129 4.8 12.9 0.00 0.00 0.00 71 1016.6
20260507200507 11 133 4.8 16.1 0.00 0.00 0.00 71 1016.5
20260507200007 11 134 4.8 16.1 0.00 0.00 0.00 70 1016.4
20260507195506 11 134 4.8 14.5 0.00 0.00 0.00 70 1016.3
20260507195007 11 130 4.8 12.9 0.00 0.00 0.00 69 1016.3
20260507194507 12 126 4.8 12.9 0.00 0.00 0.00 69 1016.2
20260507194007 12 119 3.2 12.9 0.00 0.00 0.00 68 1016.3
20260507193507 12 115 3.2 12.9 0.00 0.00 0.00 68 1016.2
20260507193007 12 124 3.2 11.3 0.00 0.00 0.00 68 1016.2
20260507192506 12 118 4.8 12.9 0.00 0.00 0.00 68 1016.1
20260507192006 12 119 3.2 12.9 0.00 0.00 0.00 67 1016.1
20260507191506 12 121 3.2 12.9 0.00 0.00 0.00 67 1016.1
20260507190506 12 115 3.2 11.3 0.00 0.00 0.00 67 1016.1
20260507190007 12 115 3.2 11.3 0.00 0.00 0.00 67 1016.1
20260507185507 12 123 4.8 14.5 0.00 0.00 0.00 67 1016.0
20260507185007 12 116 4.8 14.5 0.00 0.00 0.00 67 1016.1
20260507184507 12 109 4.8 14.5 0.00 0.00 0.00 66 1016.1
20260507184007 12 116 3.2 14.5 0.00 0.00 0.00 66 1016.0
20260507183007 12 112 4.8 14.5 0.00 0.00 0.00 65 1016.0
20260507182507 12 112 3.2 14.5 0.00 0.00 0.00 65 1016.0
20260507182007 13 119 3.2 12.9 0.00 0.00 0.00 64 1015.9
20260507181506 13 123 3.2 12.9 0.00 0.00 0.00 64 1016.0
20260507180006 13 133 3.2 9.7 0.00 0.00 0.00 63 1015.8
20260507175506 13 127 3.2 9.7 0.00 0.00 0.00 62 1015.6
20260507175006 13 133 3.2 9.7 0.00 0.00 0.00 63 1015.5
20260507174507 13 129 4.8 12.9 0.00 0.00 0.00 62 1015.6
20260507174007 13 126 4.8 12.9 0.00 0.00 0.00 62 1015.7
20260507173507 13 119 6.4 12.9 0.00 0.00 0.00 61 1015.8
20260507172507 13 96 8.0 17.7 0.00 0.00 0.00 61 1015.7
20260507172007 13 109 6.4 17.7 0.00 0.00 0.00 60 1015.8
20260507171507 14 136 4.8 17.7 0.00 0.00 0.00 60 1015.8
20260507170506 14 115 4.8 14.5 0.00 0.00 0.00 60 1015.6
20260507165506 14 134 6.4 17.7 0.00 0.00 0.00 59 1015.8
20260507165006 14 138 6.4 17.7 0.00 0.00 0.00 59 1015.9
20260507164507 14 111 6.4 12.9 0.00 0.00 0.00 60 1015.9
20260507164007 14 115 4.8 14.5 0.00 0.00 0.00 60 1015.8
20260507163507 14 113 4.8 14.5 0.00 0.00 0.00 61 1015.9
20260507162507 15 138 8.0 16.1 0.00 0.00 0.00 59 1016.0
20260507162006 15 151 8.0 19.3 0.00 0.00 0.00 58 1015.9
20260507161507 14 136 6.4 19.3 0.00 0.00 0.00 58 1015.9
20260507161006 15 112 6.4 16.1 0.00 0.00 0.00 57 1015.8
20260507160506 15 129 6.4 16.1 0.00 0.00 0.00 58 1015.8
20260507160006 15 149 6.4 17.7 0.00 0.00 0.00 57 1015.8
20260507155507 14 141 6.4 19.3 0.00 0.00 0.00 56 1015.8
20260507155007 14 120 4.8 19.3 0.00 0.00 0.00 55 1015.8
20260507154506 14 118 4.8 14.5 0.00 0.00 0.00 56 1015.9
20260507154008 14 132 6.4 12.9 0.00 0.00 0.00 55 1016.1
20260507153506 14 141 8.0 16.1 0.00 0.00 0.00 55 1016.0
20260507153006 14 159 9.7 19.3 0.00 0.00 0.00 56 1016.1
20260507152007 14 159 8.0 25.7 0.00 0.00 0.00 57 1016.2
20260507151506 14 149 6.4 20.9 0.00 0.00 0.00 56 1016.3
20260507151006 15 118 4.8 19.3 0.00 0.00 0.00 55 1016.3
20260507150506 15 122 4.8 19.3 0.00 0.00 0.00 54 1016.1
20260507150006 15 118 6.4 11.3 0.00 0.00 0.00 54 1016.4
20260507145006 14 168 9.7 20.9 0.00 0.00 0.00 55 1016.3
20260507144506 14 165 9.7 27.4 0.00 0.00 0.00 54 1016.4
20260507144006 15 163 8.0 27.4 0.00 0.00 0.00 55 1016.4
20260507143506 14 172 8.0 20.9 0.00 0.00 0.00 56 1016.3
20260507143006 14 182 8.0 20.9 0.00 0.00 0.00 55 1016.4
20260507142506 14 175 6.4 20.9 0.00 0.00 0.00 53 1016.4
20260507142006 14 168 6.4 20.9 0.00 0.00 0.00 54 1016.4
20260507141007 13 169 6.4 12.9 0.00 0.00 0.00 55 1016.6
20260507140006 13 154 3.2 14.5 0.00 0.00 0.00 58 1016.7
20260507135506 13 150 4.8 9.7 0.00 0.00 0.00 60 1016.7
20260507135006 13 147 3.2 12.9 0.00 0.00 0.00 58 1016.7
20260507134506 13 160 3.2 12.9 0.00 0.00 0.00 60 1016.7
20260507133506 13 156 6.4 11.3 0.00 0.00 0.00 59 1016.8
20260507133008 13 151 8.0 12.9 0.00 0.00 0.00 58 1016.8
20260507132506 13 161 8.0 19.3 0.00 0.00 0.00 58 1016.8
20260507132006 14 174 6.4 19.3 0.00 0.00 0.00 57 1016.8
20260507131506 14 172 4.8 17.7 0.00 0.00 0.00 59 1016.7
20260507131006 13 152 4.8 12.9 0.00 0.00 0.00 59 1016.8
20260507130507 13 138 4.8 12.9 0.00 0.00 0.00 60 1016.8
20260507125506 12 162 4.8 12.9 0.00 0.00 0.00 62 1016.8
20260507125006 12 164 4.8 12.9 0.00 0.00 0.00 62 1016.8
20260507124506 12 157 4.8 12.9 0.00 0.00 0.00 63 1016.8
20260507122506 12 158 4.8 16.1 0.00 0.00 0.00 62 1016.9
20260507122006 12 147 6.4 16.1 0.00 0.00 0.00 63 1017.0
20260507121506 12 148 8.0 17.7 0.00 0.00 0.00 62 1016.9
20260507121005 12 138 8.0 17.7 0.00 0.00 0.00 62 1017.0
20260507120506 13 136 9.7 19.3 0.00 0.00 0.00 62 1016.9
20260507120006 13 147 9.7 19.3 0.00 0.00 0.00 61 1016.9
20260507115506 14 153 8.0 19.3 0.00 0.00 0.00 60 1016.9
20260507115006 14 153 8.0 20.9 0.00 0.00 0.00 58 1016.9
20260507114506 14 134 8.0 20.9 0.00 0.00 0.00 61 1016.9
20260507114006 13 124 8.0 20.9 0.00 0.00 0.00 60 1016.8
20260507113506 13 111 6.4 16.1 0.00 0.00 0.00 60 1016.9
20260507113006 13 129 4.8 17.7 0.00 0.00 0.00 60 1016.9
20260507112506 13 135 6.4 17.7 0.00 0.00 0.00 59 1016.9
20260507112006 13 141 6.4 16.1 0.00 0.00 0.00 61 1017.0
20260507111506 13 166 4.8 14.5 0.00 0.00 0.00 61 1016.9
20260507110505 13 124 6.4 12.9 0.00 0.00 0.00 57 1017.0
20260507110005 13 148 6.4 16.1 0.00 0.00 0.00 60 1017.0
20260507105006 13 177 6.4 14.5 0.00 0.00 0.00 62 1017.0
20260507104506 13 179 6.4 16.1 0.00 0.00 0.00 61 1016.9
20260507104006 12 166 6.4 16.1 0.00 0.00 0.00 61 1017.1
20260507103505 13 151 4.8 14.5 0.00 0.00 0.00 64 1017.0
20260507103005 12 120 6.4 12.9 0.00 0.00 0.00 63 1017.2
20260507102505 12 91 8.0 12.9 0.00 0.00 0.00 66 1017.1
20260507101507 12 136 8.0 20.9 0.00 0.00 0.00 65 1017.1
20260507101005 12 144 6.4 16.1 0.00 0.00 0.00 66 1017.2
20260507100506 12 139 6.4 16.1 0.00 0.00 0.00 66 1017.1
20260507100006 12 111 6.4 17.7 0.00 0.00 0.00 67 1017.2
20260507095506 12 108 8.0 17.7 0.00 0.00 0.00 67 1017.2
20260507095006 12 148 6.4 17.7 0.00 0.00 0.00 69 1017.2
20260507094505 12 156 6.4 17.7 0.00 0.00 0.00 67 1017.2
20260507093506 12 129 4.8 16.1 0.00 0.00 0.00 68 1017.1
20260507093006 12 110 4.8 12.9 0.00 0.00 0.00 69 1017.1
20260507092505 11 120 4.8 12.9 0.00 0.00 0.00 71 1017.1
20260507092006 11 122 4.8 12.9 0.00 0.00 0.00 71 1017.2
20260507091006 11 131 6.4 12.9 0.00 0.00 0.00 72 1017.2
20260507090505 11 138 4.8 12.9 0.00 0.00 0.00 71 1017.1
20260507090006 11 121 4.8 11.3 0.00 0.00 0.00 74 1017.2
20260507085506 11 117 4.8 12.9 0.00 0.00 0.00 74 1017.2
20260507085005 11 117 4.8 12.9 0.00 0.00 0.00 75 1017.1
20260507084505 10 125 4.8 12.9 0.00 0.00 0.00 75 1017.1
20260507083505 10 156 3.2 9.7 0.00 0.00 0.00 76 1017.2
20260507083006 10 120 3.2 11.3 0.00 0.00 0.00 78 1017.3
20260507082506 10 101 3.2 11.3 0.00 0.00 0.00 80 1017.4
20260507082005 10 112 3.2 8.0 0.00 0.00 0.00 79 1017.4
20260507081505 9 106 4.8 9.7 0.00 0.00 0.00 79 1017.3
20260507081005 9 101 4.8 9.7 0.00 0.00 0.00 80 1017.4
20260507080505 9 126 6.4 12.9 0.00 0.00 0.00 82 1017.3
20260507080006 8 165 6.4 12.9 0.00 0.00 0.00 83 1017.2
20260507075505 8 168 4.8 12.9 0.00 0.00 0.00 82 1017.2
20260507075005 8 152 6.4 12.9 0.00 0.00 0.00 82 1017.2
20260507074505 8 151 6.4 16.1 0.00 0.00 0.00 82 1017.1
20260507073505 8 161 4.8 12.9 0.00 0.00 0.00 82 1017.1
20260507073005 8 148 3.2 11.3 0.00 0.00 0.00 82 1017.0
20260507072505 8 132 3.2 11.3 0.00 0.00 0.00 82 1017.2
20260507071505 8 93 3.2 11.3 0.00 0.00 0.00 83 1017.0
20260507071005 8 93 3.2 6.4 0.00 0.00 0.00 82 1017.1
20260507070505 8 90 3.2 9.7 0.00 0.00 0.00 82 1017.1
20260507070009 8 87 3.2 9.7 0.00 0.00 0.00 83 1017.0
20260507065505 8 86 3.2 6.4 0.00 0.00 0.00 83 1017.0
20260507064505 8 86 3.2 8.0 0.00 0.00 0.00 83 1016.9
20260507063505 8 78 4.8 8.0 0.00 0.00 0.00 85 1016.9
20260507062505 7 83 4.8 11.3 0.00 0.00 0.00 85 1016.8
20260507062005 7 84 4.8 12.9 0.00 0.00 0.00 85 1016.8
20260507061505 7 82 4.8 12.9 0.00 0.00 0.00 85 1016.9
20260507061005 7 83 4.8 8.0 0.00 0.00 0.00 86 1016.6